Middletown, PA

1:53 PM EDT on June 26, 2017 (GMT -0400)
Harrisburg International

Weather History for KMDT - October, 2011

Change the Weather History Date:

Thursday, October 20, 2011

  Actual Average Record
Temperature  
Mean Temperature 59 °F 53 °F  
Max Temperature 67 °F 63 °F 82 °F (1969)
Min Temperature 50 °F 43 °F 28 °F (1992)
Degree Days  
Heating Degree Days 6 12  
Month to date heating degree days 138 186  
Since 1 July heating degree days 184 258  
Cooling Degree Days 0 0  
Month to date cooling degree days 0 10  
Year to date cooling degree days 1246 1003  
Growing Degree Days 10 (Base 50)    
Moisture  
Dew Point 49 °F    
Average Humidity 69    
Maximum Humidity 90    
Minimum Humidity 47    
Precipitation  
Precipitation 0.01 in 0.10 in 1.72 in (1944)
Month to date precipitation 2.47 2.25  
Year to date precipitation 64.29 33.26  
Snow  
Snow 0.00 in 0.00 in 0.10 in (1940)
Month to date snowfall 0.0 0.0  
Since 1 July snowfall 0.0 0.0  
Since 1 September snowfall 0.0 0.0  
Snow Depth 0.00 in    
Sea Level Pressure  
Sea Level Pressure 29.42 in    
Wind  
Wind Speed 9 mph (SW)    
Max Wind Speed 20 mph    
Max Gust Speed 29 mph    
Visibility 9 miles    
Events Rain    
T = Trace of Precipitation, MM = Missing Value Source: NWS Daily Summary

Daily Weather History Graph

Daily Weather History Graph

Search for Another Location

Airport or City:

Trip Planner

Search our weather history database for the weather conditions in past years. The results will help you decide how hot, cold, wet, or windy it might be!

Date:

Astronomy

Oct. 20, 2011 Rise Set
Actual Time 7:22 AM EDT 6:20 PM EDT
Civil Twilight 6:55 AM EDT 6:47 PM EDT
Nautical Twilight 6:23 AM EDT 7:19 PM EDT
Astronomical Twilight 5:52 AM EDT 7:50 PM EDT
Moon 12:04 AM EDT (10/20) 2:28 PM EDT (10/20)
Length of Visible Light 11h 52m
Length of Day
10h 57m
Last Quarter, 44% of the Moon is Illuminated
Oct 20
Last Quarter
Oct 26
New
Nov 2
First Quarter
Nov 10
Full
Nov 18
Last Quarter

Hourly Weather History & Observations

Time (EDT) Temp. Dew Point Humidity Pressure Visibility Wind Dir Wind Speed Gust Speed Precip Events Conditions
12:56 AM 63.0 °F 63.0 °F 100% 29.22 in 5.0 mi ESE 3.5 mph - 0.05 in   Light Drizzle
1:23 AM 62.6 °F 62.6 °F 100% 29.22 in 1.5 mi Calm Calm - 0.01 in   Overcast
1:36 AM 62.6 °F 62.6 °F 100% 29.22 in 3.0 mi Calm Calm - 0.01 in   Overcast
1:43 AM 64.4 °F 62.6 °F 94% 29.23 in 6.0 mi Calm Calm - 0.01 in   Overcast
1:56 AM 64.9 °F 64.0 °F 97% 29.23 in 3.0 mi SSE 8.1 mph - 0.01 in   Light Drizzle
2:19 AM 66.2 °F 62.6 °F 88% 29.23 in 10.0 mi South 9.2 mph - 0.00 in   Mostly Cloudy
2:56 AM 66.9 °F 63.0 °F 87% 29.23 in 10.0 mi SSE 6.9 mph - 0.00 in   Overcast
3:56 AM 63.0 °F 59.0 °F 87% 29.25 in 10.0 mi NW 13.8 mph - N/A   Overcast
4:13 AM 60.8 °F 55.4 °F 82% 29.26 in 10.0 mi West 12.7 mph - N/A   Mostly Cloudy
4:56 AM 57.0 °F 53.1 °F 87% 29.28 in 10.0 mi WNW 9.2 mph - N/A   Scattered Clouds
5:56 AM 57.0 °F 52.0 °F 83% 29.31 in 10.0 mi NW 5.8 mph - N/A   Overcast
6:56 AM 57.0 °F 53.1 °F 87% 29.34 in 10.0 mi Calm Calm - N/A   Overcast
7:06 AM 57.2 °F 53.6 °F 88% 29.34 in 10.0 mi WSW 6.9 mph - N/A   Overcast
7:56 AM 55.9 °F 48.0 °F 75% 29.37 in 10.0 mi WSW 8.1 mph - N/A   Overcast
8:56 AM 54.0 °F 45.0 °F 72% 29.42 in 10.0 mi SW 11.5 mph - 0.00 in Rain Light Rain
9:56 AM 55.0 °F 43.0 °F 64% 29.44 in 10.0 mi WSW 6.9 mph - 0.00 in   Overcast
10:56 AM 55.9 °F 45.0 °F 67% 29.45 in 10.0 mi Variable 4.6 mph - N/A   Overcast
11:56 AM 57.0 °F 44.1 °F 62% 29.46 in 10.0 mi SSW 12.7 mph 21.9 mph N/A   Overcast
12:56 PM 57.0 °F 42.1 °F 57% 29.46 in 10.0 mi SW 12.7 mph 25.3 mph N/A   Mostly Cloudy
1:56 PM 57.9 °F 41.0 °F 53% 29.48 in 10.0 mi South 12.7 mph 20.7 mph N/A   Mostly Cloudy
2:56 PM 57.0 °F 41.0 °F 55% 29.49 in 10.0 mi South 10.4 mph 16.1 mph N/A   Overcast
3:56 PM 57.0 °F 39.9 °F 53% 29.52 in 10.0 mi Variable 5.8 mph - N/A   Overcast
4:56 PM 57.0 °F 39.0 °F 51% 29.55 in 10.0 mi SW 10.4 mph 16.1 mph N/A   Overcast
5:56 PM 57.0 °F 37.9 °F 49% 29.58 in 10.0 mi West 9.2 mph 16.1 mph N/A   Overcast
6:56 PM 55.9 °F 37.0 °F 49% 29.61 in 10.0 mi SW 8.1 mph - N/A   Overcast
7:56 PM 55.0 °F 37.9 °F 53% 29.65 in 10.0 mi WSW 6.9 mph - N/A   Mostly Cloudy
8:56 PM 55.4 °F 37.4 °F 51% 29.67 in 10.0 mi WSW 11.5 mph 19.6 mph N/A   Mostly Cloudy
9:56 PM 54.0 °F 37.0 °F 53% 29.70 in 10.0 mi West 16.1 mph 26.5 mph N/A   Mostly Cloudy
10:56 PM 53.1 °F 37.9 °F 57% 29.73 in 10.0 mi WSW 11.5 mph 24.2 mph N/A   Mostly Cloudy
11:56 PM 52.0 °F 37.0 °F 57% 29.75 in 10.0 mi West 8.1 mph - N/A   Partly Cloudy